Location: Leedale
(52.5833°N, 114.4833°W)
Time: 09:30:35
(UTC+00:00)

Tiangong - Visible Passes

Search period start: 08 June 2023 00:00
Search period end: 18 June 2023 00:00
Orbit: 386 x 390 km, 41.5° (Epoch: 07 June)

Date Brightness Start Highest point End Pass type
(mag) Time Alt. Az. Time Alt. Az. Time Alt. Az.
08 Jun 0.1 09:48:52 11° S 09:49:20 11° S 09:50:20 10° SSE visible
09 Jun 0.1 10:25:53 10° SSW 10:27:01 11° S 10:28:10 10° SSE visible
10 Jun 0.1 09:29:16 11° SSE 09:29:16 11° SSE 09:29:53 10° SSE visible
11 Jun 0.1 10:05:54 10° SSW 10:06:14 10° S 10:06:35 10° S visible
